RH
93 92 92 88 86 84 81 73 69 73 78 81 82 88 91 86 77 79 89 92 85 89 83 84 79 82 90 90 81 68 68 72 83 72 75 80 86 79 86 76 68 56 73 83 87 88 59 63 70 48 39 68 63 71
94 92 93 91 87 86 84 78 71 72 77 81 82 87 89 85 75 74 84 88 85 87 79 82 80 79 78 76 85 88 72 80 84 82 88 91 85 92 79 63 76 66 54 48 60 53 45 67 54 60 53 57 63 67
94 94 94 92 89 86 84 83 74 72 75 79 80 80 86 80 71 72 88 94 90 91 88 87 78 81 79 78 80 83 91 87 88 89 91 90 88 86 87 88 80 69 74 70 62 56 62 55 58 68 65 64 65 69
94 96 95 94 91 89 88 87 80 73 73 77 79 81 86 81 71 67 79 93 94 93 92 81 75 82 80 82 82 82 84 90 90 94 92 93 89 79 82 72 76 57 73 73 78 63 61 56 62 59 66 68 67 72
94 95 96 95 93 90 90 90 84 76 75 77 81 84 80 82 75 88 89 90 92 89 91 88 80 82 82 83 82 84 84 88 94 94 96 93 93 90 92 94 98 76 68 63 56 50 47 46 57 68 71 71 74 74
94 95 96 96 95 93 91 92 89 80 77 80 83 85 85 78 76 83 84 91 89 92 94 91 84 87 86 84 87 89 90 92 94 94 94 94 88 88 94 95 74 82 75 61 53 65 60 59 68 74 75 75 77 79
93 95 96 97 96 94 92 92 91 83 78 80 82 86 86 78 90 87 82 74 85 92 87 88 90 88 83 85 92 92 90 94 93 93 98 93 91 93 96 88 64 65 68 71 72 79 74 72 66 75 77 78 78 79
88 93 95 97 97 96 94 93 92 86 79 79 82 87 87 74 76 84 89 82 85 83 88 92 87 81 85 91 92 95 95 95 94 94 95 96 94 97 98 79 79 69 73 76 76 78 73 80 82 83 85 88 84 82
84 86 90 93 95 97 96 94 93 87 82 82 86 83 88 92 94 89 80 80 88 76 89 94 90 82 90 95 95 95 94 97 94 96 96 93 94 98 82 79 76 75 70 68 76 79 83 84 79 83 86 87 84 84
85 83 88 86 90 96 97 96 94 88 85 88 88 95 97 93 75 79 85 87 92 89 94 95 94 90 92 96 96 95 96 97 98 92 96 98 92 77 70 75 73 72 74 79 84 84 86 87 85 85 88 85 83 82
92 92 89 93 95 96 98 97 94 90 90 93 99 98 93 78 82 84 94 94 93 93 89 92 89 95 92 93 94 93 97 97 99 92 98 96 96 86 75 77 78 80 80 81 81 79 79 80 82 85 86 85 82 78
92 92 94 95 96 96 97 97 94 94 96 90 89 82 81 82 93 89 95 92 94 89 94 94 91 90 95 94 94 98 96 97 99 96 99 98 88 74 72 70 72 68 76 81 85 84 84 76 81 84 86 87 85 76
91 92 92 93 96 96 96 97 92 88 89 93 90 89 92 90 98 100 98 97 98 94 97 99 98 91 98 95 96 96 98 97 91 99 96 87 75 68 64 64 66 79 86 85 83 87 80 78 83 86 86 86 78 70
90 91 88 89 93 96 97 97 94 93 96 100 99 98 94 96 96 91 91 92 90 96 96 96 98 95 92 97 91 94 87 89 100 100 90 90 74 63 54 70 80 79 82 88 90 87 84 88 89 91 85 80 70 68
87 90 86 85 92 96 97 98 94 96 98 100 100 96 97 85 96 96 97 92 93 89 90 94 96 88 98 96 91 89 95 99 92 84 87 88 66 53 56 62 69 80 80 80 80 86 90 92 92 88 84 76 69 68
87 91 90 82 86 92 96 98 96 99 100 99 99 100 91 95 96 99 98 95 94 85 89 91 94 95 89 93 98 93 88 84 79 91 89 81 54 55 60 60 64 75 78 77 75 73 74 80 82 81 78 78 74 72
89 96 85 89 90 94 97 99 99 100 99 99 98 96 94 96 94 95 81 82 86 81 91 92 91 78 92 98 97 87 87 84 86 88 94 80 57 55 60 59 64 77 83 83 82 74 74 75 84 89 83 78 79 77
90 89 84 86 91 98 99 100 100 99 99 98 99 98 95 86 93 93 84 89 87 91 89 90 87 89 87 86 86 83 85 91 92 84 82 67 64 62 62 58 60 74 82 90 90 89 90 89 85 74 77 84 86 90
91 92 87 87 94 97 100 100 100 98 96 99 99 97 96 93 90 86 84 85 91 86 91 96 89 89 78 80 82 91 94 87 60 60 68 64 62 63 69 75 81 85 87 91 93 84 79 76 69 68 72 79 72 74
84 86 85 87 87 100 100 100 100 99 99 97 99 98 97 94 90 90 88 92 95 98 98 98 85 67 62 64 82 83 83 66 61 55 49 48 54 72 74 70 67 70 82 92 93 86 94 89 82 76 80 76 74 76
82 86 82 88 100 100 100 99 99 98 99 98 98 94 98 99 100 98 96 93 98 98 97 88 74 60 60 56 57 68 63 59 52 43 39 59 49 57 59 68 78 77 83 77 78 79 82 89 78 79 76 74 72 69
93 82 100 97 100 100 100 99 99 99 99 99 99 98 99 100 99 98 95 98 98 84 78 66 65 67 64 59 52 54 51 58 55 56 58 62 56 72 72 68 84 79 78 75 72 69 72 81 93 85 80 74 74 80
87 96 100 100 100 99 96 99 99 99 99 99 99 99 98 99 98 94 97 96 83 66 66 66 67 77 69 61 64 64 72 64 55 53 54 54 51 57 63 71 81 81 82 77 85 79 81 82 86 88 84 80 86 83
92 100 99 98 99 97 98 99 99 98 98 98 99 99 98 99 98 98 97 92 69 75 69 71 68 72 71 74 74 67 65 71 69 64 62 69 74 63 62 65 65 77 76 88 93 91 92 92 87 89 84 90 85 82
100 98 99 98 99 97 99 97 98 98 98 100 97 97 97 98 97 97 97 89 71 75 71 70 72 70 69 65 63 66 75 71 73 74 73 75 68 73 85 86 78 80 91 91 93 94 97 96 92 92 89 89 88 86
98 96 97 93 98 94 95 99 99 98 98 100 96 96 98 97 97 94 92 75 65 67 69 70 67 67 67 67 69 69 66 84 83 81 73 83 81 80 83 91 90 90 90 83 92 93 94 94 94 92 91 87 84 85
98 98 99 96 94 93 96 90 88 96 100 97 99 99 97 96 95 87 91 89 68 79 76 66 66 68 66 63 66 69 94 89 84 81 90 91 84 79 80 88 86 88 94 92 92 91 91 93 93 91 91 90 85 82
96 97 96 96 97 95 96 98 97 99 93 92 91 100 96 91 84 85 84 90 91 94 89 90 84 76 74 73 85 94 98 98 96 95 95 93 95 96 94 96 95 79 94 94 93 93 91 90 92 92 91 88 92 87
98 96 94 98 97 97 95 93 93 92 86 92 90 92 90 90 91 90 87 94 96 95 90 89 85 95 94 94 97 96 95 93 90 90 86 77 90 85 91 93 95 95 95 95 83 90 94 93 92 89 86 87 91 90
94 95 97 97 96 95 90 90 94 94 92 86 84 91 90 83 90 96 94 93 86 74 72 85 92 92 90 92 90 94 96 91 80 75 78 72 72 91 94 94 95 95 96 95 96 95 82 88 85 92 95 94 92 93
93 91 98 98 97 95 93 98 97 89 96 98 97 91 71 74 88 91 83 70 70 91 91 80 86 88 87 89 89 84 82 86 90 85 92 92 87 88 92 94 95 95 94 94 94 92 92 96 95 94 92 92 92 92
98 95 98 100 98 97 99 100 99 98 98 100 87 99 96 94 90 59 51 86 83 76 72 70 70 67 78 69 74 78 71 84 76 80 84 85 86 90 92 95 95 94 93 92 92 93 93 93 93 90 91 91 91 92
98 96 97 99 99 100 100 97 99 99 100 100 94 80 75 83 81 64 93 79 65 62 62 65 68 66 67 74 71 71 72 86 83 76 76 78 78 84 93 94 93 92 92 92 94 93 93 92 91 91 91 92 93 92
Wind_Speed
10 9 10 9 10 7 6 6 5 7 9 9 9 9 7 8 11 2 1 1 3 0 4 6 4 5 2 3 3 3 3 2 2 2 2 3 3 4 1 5 5 6 6 5 2 2 8 6 4 7 7 3 5 6
11 9 10 11 8 9 8 7 7 5 7 9 9 9 6 7 8 4 2 2 1 3 5 3 5 3 2 5 6 2 4 1 2 3 0 1 3 0 3 5 1 4 8 5 10 9 4 7 6 5 4 5 6 5
12 11 11 12 11 9 9 8 8 7 6 7 8 8 6 7 7 5 1 2 2 2 4 2 5 1 3 4 2 3 2 2 2 3 3 2 5 4 4 7 2 5 4 5 2 4 8 10 6 6 6 5 2 2
12 12 12 13 12 11 10 10 9 9 7 7 6 6 5 6 5 4 2 1 2 1 1 6 1 3 2 4 2 2 4 2 5 3 2 2 3 2 4 4 5 6 7 6 7 10 9 9 8 8 7 8 5 4
12 13 13 14 14 12 11 11 11 9 9 8 8 7 3 4 3 3 2 1 2 3 3 5 2 1 2 5 7 4 4 3 1 2 3 5 3 1 2 2 6 9 9 7 9 9 5 7 3 3 6 8 8 8
13 13 14 14 15 14 11 12 11 10 9 7 8 7 6 4 2 3 4 1 3 3 2 5 1 1 2 3 5 4 3 3 2 4 4 3 3 4 3 6 10 7 5 6 5 3 5 6 6 4 3 7 6 7
15 12 14 14 15 16 13 13 13 12 10 8 7 7 4 3 2 3 5 3 4 3 3 6 5 2 1 3 2 2 2 1 2 2 3 3 3 4 4 8 4 8 10 8 7 2 6 6 7 3 4 3 6 4
14 14 14 14 15 16 15 13 14 12 10 8 7 6 5 2 2 2 1 5 4 4 4 2 6 3 2 2 1 1 2 1 2 2 1 3 1 2 9 11 4 4 3 7 8 8 6 3 1 3 2 5 5 5
16 15 14 14 15 16 16 15 15 13 10 7 4 0 3 1 1 2 5 7 2 3 3 3 4 5 1 2 2 1 1 1 1 2 3 2 3 12 13 9 7 7 8 4 3 4 5 7 7 6 5 5 6 6
16 17 14 16 16 15 17 16 17 15 10 7 3 1 4 4 3 4 3 2 3 1 1 5 2 3 4 1 1 3 1 2 2 2 2 4 9 9 15 10 7 5 6 3 1 5 4 6 7 7 8 5 6 7
16 17 15 14 14 14 15 17 19 16 10 1 3 4 1 3 2 3 1 3 2 3 5 4 6 4 3 4 4 2 3 1 1 4 2 4 7 7 6 4 4 4 6 7 6 5 3 5 5 7 7 8 7 7
15 17 15 14 14 14 14 18 24 9 4 5 4 3 1 2 2 3 4 2 5 7 3 4 4 3 1 2 3 3 4 2 6 1 1 6 8 6 6 4 3 3 5 6 5 8 8 6 6 6 6 6 6 6
14 15 16 14 14 14 14 19 28 15 11 3 3 2 2 2 0 8 10 5 4 5 5 4 2 4 1 2 2 2 5 7 4 1 7 9 5 5 4 4 5 3 2 4 4 3 5 3 3 5 5 5 6 6
15 16 15 14 13 14 14 18 26 17 5 3 6 7 7 5 8 9 6 4 4 4 6 4 3 2 3 1 2 3 3 3 1 4 10 5 6 4 4 3 3 2 2 3 0 2 2 2 3 2 6 6 7 7
15 16 16 16 14 14 12 15 28 6 4 5 6 8 11 6 2 1 1 2 2 5 5 4 3 3 1 2 3 3 2 7 8 9 6 5 7 5 3 3 5 5 4 4 4 4 5 4 4 4 5 7 7 7
15 17 10 18 19 16 13 14 12 3 3 4 5 4 2 1 3 2 3 2 3 5 3 3 3 3 6 4 4 10 6 9 7 6 4 2 4 5 5 5 5 5 6 6 5 5 6 7 8 7 6 7 8 8
15 5 7 10 11 13 14 4 3 7 6 6 7 3 4 1 4 4 6 4 6 6 4 4 6 10 3 0 5 7 9 5 5 4 3 6 6 6 6 5 5 6 6 7 6 7 7 6 4 4 8 8 8 7
10 7 13 13 9 5 2 1 4 7 9 7 5 5 4 3 3 3 4 6 6 4 4 5 5 5 7 7 6 6 6 4 4 4 3 5 6 6 5 7 6 7 7 5 5 3 3 6 7 9 7 5 5 4
8 6 11 14 5 4 5 4 3 5 8 3 3 4 3 2 2 3 7 10 2 1 4 2 4 7 7 6 6 3 2 4 4 3 4 6 7 7 6 5 4 4 6 5 5 7 7 10 9 6 6 6 8 6
20 20 19 15 8 3 4 3 2 4 4 5 2 5 4 4 5 5 7 9 7 4 4 7 10 5 5 4 4 4 4 4 3 2 5 4 6 7 9 9 7 7 5 3 4 9 4 5 5 6 6 8 8 8
14 7 12 9 2 5 4 4 4 4 3 5 2 5 2 2 2 6 8 8 6 5 7 11 9 9 6 5 4 5 7 6 7 7 6 4 4 6 6 6 6 4 4 4 6 8 13 9 7 7 8 9 8 6
4 9 2 3 4 4 3 4 3 1 3 2 2 2 2 3 4 5 6 6 5 11 11 11 12 9 11 17 16 14 12 9 11 6 9 4 5 3 5 7 5 7 8 8 8 9 8 8 5 6 8 8 9 6
4 5 2 4 6 8 7 5 6 6 6 4 2 4 4 3 4 6 6 6 10 11 12 15 15 9 14 18 14 12 10 14 12 12 10 9 9 9 9 7 6 7 7 8 6 7 7 8 9 7 6 6 7 6
9 7 7 6 10 7 5 6 3 4 3 4 5 5 4 4 4 3 6 7 13 6 11 17 11 12 13 17 15 18 14 8 11 12 9 6 7 11 9 10 7 8 8 4 5 5 4 4 8 6 7 8 8 9
7 8 7 6 3 5 5 4 3 4 6 5 6 5 3 3 4 5 6 7 10 10 11 11 12 16 17 15 13 12 8 10 12 12 8 10 11 7 5 6 7 6 5 5 5 5 4 5 6 7 9 10 11 11
11 11 9 11 5 7 8 8 9 9 4 4 7 2 2 4 5 9 7 8 11 11 11 12 15 13 13 13 14 12 13 6 5 8 11 7 10 10 10 5 4 5 8 7 5 7 7 7 8 10 9 12 18 11
8 9 4 2 4 3 2 2 2 4 8 10 6 6 5 6 9 8 4 5 7 6 6 9 10 11 13 11 9 10 3 6 8 7 2 5 7 8 8 6 7 5 6 8 7 7 9 9 9 10 8 6 9 11
6 5 10 9 4 3 5 4 7 10 7 4 7 6 10 11 10 6 7 4 4 2 4 3 5 7 8 8 3 3 1 3 3 2 2 3 4 3 4 3 2 10 5 6 6 6 7 8 9 9 10 10 8 8
5 3 5 6 4 5 8 10 8 5 4 6 8 6 8 6 5 4 4 3 0 0 2 3 3 1 2 1 1 1 4 7 9 7 8 8 3 5 7 6 5 4 4 4 10 8 8 8 9 9 10 9 8 7
6 5 4 5 8 10 7 8 5 4 3 5 3 3 4 6 5 3 3 2 3 8 8 5 4 6 5 5 4 3 4 6 9 9 8 9 8 3 5 6 6 5 5 5 6 5 12 7 10 8 9 8 8 8
7 7 1 2 6 5 4 2 2 2 0 3 3 5 13 8 5 5 7 9 9 4 3 8 6 7 6 6 7 6 8 9 12 12 4 2 3 4 5 5 5 6 7 8 8 8 9 7 8 9 10 11 12 12
6 12 9 6 6 3 3 2 3 4 3 3 7 2 4 2 8 13 11 6 7 11 18 14 10 11 13 11 8 7 8 2 10 14 15 8 6 5 6 6 6 7 8 9 9 9 12 12 9 9 9 12 11 11
3 3 3 2 2 2 4 3 2 4 2 4 6 8 10 7 11 9 3 5 11 13 12 12 12 12 11 13 13 10 13 4 6 13 18 19 18 14 8 7 7 9 11 10 9 11 12 12 10 9 8 11 11 10
Wind_Direction
287 285 274 269 285 263 236 271 302 325 333 344 358 356 356 4 5 38 225 109 111 203 264 192 205 149 130 149 167 277 12 342 33 80 153 218 206 238 249 236 195 187 158 211 130 228 285 155 90 172 210 199 179 188
282 277 266 265 255 264 237 249 277 303 320 330 343 350 23 17 29 52 353 347 99 154 239 218 228 237 222 185 149 160 177 225 229 79 162 118 248 166 203 273 211 253 195 189 186 217 229 213 208 217 182 182 204 190
278 272 259 258 260 230 241 241 259 281 295 314 330 345 5 25 34 92 141 313 53 15 307 356 237 146 131 201 231 135 255 167 102 163 166 213 244 137 211 238 252 249 167 227 7 264 231 236 257 240 208 230 225 234
275 264 256 251 253 250 218 217 245 265 280 296 306 327 9 5 58 85 86 179 95 118 248 282 78 252 152 140 131 103 126 84 119 116 151 194 233 170 238 260 215 212 150 200 263 281 277 258 223 248 226 215 217 179
277 268 251 243 246 242 230 215 214 243 267 287 296 311 357 6 21 98 128 173 154 135 251 279 313 187 134 153 136 132 129 130 138 125 142 223 221 172 238 317 240 184 198 186 226 223 201 256 237 260 221 209 201 183
280 274 261 249 237 240 226 207 210 226 237 258 283 297 322 344 84 85 3 276 160 145 69 311 287 119 71 117 142 152 153 121 128 161 218 251 220 159 255 251 245 207 219 196 234 198 221 282 284 246 242 219 194 184
280 275 271 252 237 235 229 211 202 209 231 241 255 280 285 63 95 153 185 203 152 116 78 313 309 356 98 88 38 51 42 140 157 216 225 206 227 183 238 241 205 213 219 234 241 220 279 213 240 212 221 184 169 145
289 282 275 270 248 232 224 209 200 200 216 234 251 268 273 159 28 310 220 133 125 93 93 245 272 351 155 154 182 19 121 42 232 263 325 208 138 196 253 241 255 218 216 269 250 216 239 318 253 192 146 141 143 148
290 287 284 280 270 245 227 204 192 186 198 213 251 197 62 26 227 224 123 96 85 137 194 162 190 247 122 121 126 86 123 222 162 242 246 137 223 228 231 231 227 218 198 184 160 213 251 235 249 213 192 178 172 183
289 288 279 280 274 258 230 206 184 172 173 163 95 41 269 225 180 120 41 40 36 278 137 219 58 235 128 177 158 116 75 242 256 248 82 222 253 276 263 237 242 232 218 161 235 274 224 256 228 213 208 192 198 183
285 287 284 270 265 256 233 203 174 148 146 144 186 223 252 315 70 38 222 147 200 241 209 213 182 170 235 133 179 185 177 178 25 259 168 256 269 255 296 277 274 226 229 228 228 246 230 222 230 208 211 205 186 178
281 285 282 275 264 258 240 198 163 159 163 155 139 81 62 68 38 118 230 322 207 228 178 170 177 170 223 262 119 190 146 105 239 173 196 261 255 276 305 321 320 318 283 273 234 240 236 230 221 216 207 196 190 188
281 285 287 283 268 259 248 198 172 138 115 78 80 72 113 252 100 200 201 236 228 191 175 160 149 137 134 260 27 144 147 207 111 111 231 231 244 273 278 297 313 343 338 290 295 214 207 217 193 187 195 187 166 168
274 276 276 277 273 266 248 206 165 141 103 156 165 195 200 216 240 198 196 182 197 123 147 121 105 156 143 93 173 159 234 99 92 237 233 234 235 222 200 203 194 218 193 176 32 331 266 218 225 208 192 169 159 171
276 279 273 277 267 245 241 215 167 148 132 185 182 211 215 219 229 281 279 126 168 137 123 94 68 113 166 158 204 73 1 244 210 225 227 219 206 201 214 213 214 213 199 201 179 185 207 191 196 216 192 172 165 158
277 286 256 248 247 242 227 211 172 65 141 179 221 247 200 60 258 158 186 197 159 135 91 67 121 95 234 174 154 215 171 229 243 217 227 189 204 204 202 205 214 206 197 202 198 202 196 196 197 204 178 181 185 180
265 238 246 240 249 246 214 111 119 185 208 203 229 202 166 204 200 178 166 171 150 142 189 143 177 209 99 88 246 192 213 234 232 245 211 213 210 207 193 208 220 211 213 210 201 200 210 200 164 164 198 203 194 192
250 264 276 275 267 75 88 93 205 202 197 216 215 184 198 198 161 149 134 140 157 199 147 202 137 184 208 200 238 235 227 255 234 243 232 213 226 240 213 208 212 218 220 220 226 229 153 173 203 222 216 182 168 176
243 239 257 261 225 144 177 223 214 217 223 217 176 154 159 200 203 127 138 163 126 84 108 152 221 209 212 217 221 231 238 220 252 247 242 231 204 222 234 235 227 220 223 210 196 220 216 209 215 205 202 171 199 192
256 253 256 260 168 169 231 208 154 272 228 214 182 173 170 193 162 158 153 163 156 160 188 215 225 209 207 220 204 198 211 192 201 253 264 232 223 191 224 225 225 224 225 213 223 228 225 234 209 207 190 196 195 199
265 238 247 226 195 229 191 183 186 214 269 239 133 146 200 81 147 171 180 159 180 201 228 225 236 239 242 242 224 207 223 180 210 206 217 243 217 198 238 225 214 215 214 221 223 238 227 228 224 189 197 209 210 198
229 221 126 180 187 202 258 178 216 240 193 201 150 236 177 196 197 191 137 196 222 228 223 234 235 222 238 244 246 234 242 220 228 241 250 236 240 243 245 233 170 227 226 230 222 234 237 226 180 182 191 206 190 169
188 158 168 197 197 195 241 152 181 184 197 198 168 206 222 217 217 142 200 214 233 230 231 234 237 224 233 246 251 248 220 218 237 239 243 240 242 244 248 239 197 215 240 242 201 219 231 224 212 187 185 177 160 168
147 186 184 225 203 191 152 190 208 175 172 177 193 221 216 206 162 221 235 231 232 221 225 233 226 236 242 245 244 246 244 215 244 256 240 209 222 244 233 241 231 218 221 220 178 194 194 206 201 178 169 168 176 173
222 212 191 222 216 130 163 173 184 196 222 177 188 245 206 169 194 231 240 251 237 226 226 220 221 226 238 247 250 249 218 213 228 240 231 208 236 262 249 233 233 220 174 197 205 189 171 172 184 174 177 181 181 175
208 194 203 197 190 167 180 169 193 201 157 188 220 172 154 170 205 236 231 238 235 229 223 220 227 238 243 238 249 246 246 189 196 221 240 192 204 217 237 223 239 255 210 204 160 182 180 178 182 181 188 196 189 161
212 190 184 147 158 130 124 49 94 143 175 202 178 163 165 206 228 246 267 235 232 227 220 227 219 224 237 244 239 241 183 163 184 216 201 193 206 209 207 205 223 225 162 174 176 174 179 186 189 186 179 173 180 172
218 183 169 179 160 143 168 185 188 201 209 192 124 176 189 202 223 223 218 242 223 288 269 257 231 226 242 251 225 140 110 102 81 50 323 264 215 208 203 189 183 156 156 167 173 165 167 179 177 171 167 173 162 160
195 198 129 161 134 182 204 196 209 220 169 158 170 202 230 222 234 228 263 230 256 37 295 269 258 263 304 301 268 188 139 156 154 177 221 242 294 250 201 188 185 163 157 153 180 177 168 160 162 164 163 159 149 138
219 157 163 171 177 206 221 183 209 214 205 192 215 311 287 267 238 201 217 211 240 247 242 226 190 183 213 192 222 250 219 216 202 193 187 215 224 181 161 168 172 168 150 143 141 144 169 154 150 129 129 129 138 134
153 169 147 210 229 236 203 186 329 225 183 220 229 208 253 281 299 232 213 230 235 206 182 240 226 205 196 201 206 214 240 211 220 225 210 171 136 156 164 161 149 145 148 150 154 157 154 140 146 150 150 148 158 147
170 184 171 199 238 268 21 177 186 196 235 210 242 192 331 4 261 274 242 168 207 230 235 233 234 234 210 221 210 206 224 211 185 198 194 191 177 171 153 144 143 145 151 155 156 152 148 150 152 156 153 145 144 146
160 111 90 83 6 227 228 138 235 281 311 256 247 238 234 225 245 258 309 209 219 229 228 223 225 233 225 202 210 216 213 184 168 178 189 190 182 167 151 153 153 150 149 151 148 147 152 145 147 142 138 138 141 139